ATLAS 5 CENTAUR DEB, 44673

Orbit data source: Space-Track

ATLAS 5 CENTAUR DEB, 44673 is space debris in HEO originally from a launch on Wed, 17 Oct 2018 UTC launched from the Air Force Eastern Test Range (AFETR). Debris objects in space refer to the collection of defunct objects orbiting the Earth. Examples of debris include non-operational satellites, rocket bodies, and fragments generated from explosions, collisions, or faulty payload assembly.

Loading next visibility...
ATLAS 5 CENTAUR DEB details
Identifier
44673, 2018-079AK
Orbit
HEO
Last TLE update1 day ago
Origin
Flag of USULA (US)
ManufacturerULA Decatur
MissionSpacecraft
Bus & MotorUnknown
MassUnknown
Launch date (UTC)
2018-10-17 (6 years ago)
Launch vehicleUnknown
Launch site
Air Force Eastern Test Range (AFETR)
Object type
Payload
Rocket body
Debris
Shape & HBRUnknown
Radar Cross SectionRCS unknown

Expand to show TLE details & history

TLE from 1 day ago
0 ATLAS 5 CENTAUR DEB
1 44673U 18079AK  24360.06699772 -.00000113  00000-0  00000-0 0  9996
2 44673  12.5711  87.0814 4741510 209.1630 112.9491  1.77549028 40299
Epoch: 2024-12-25T01:36Z
Definitive object data (Epoch: 2024-12-25T01:36:28.603Z)
Latitude0.00001°
Longitude-31.1476°
Altitude31,755.091 km
Speed2.659 km/s
True Right ascension05h 48m 09s
True Declination0° 00' 00"
Sunlit
Object was in daylight at TLE epoch
Visualization TLE readout
Latitude12.58885°
Longitude56.71542°
Altitude23,240.975 km
Speed3.617 km/s
Apparent Right ascension11h 50m 11s
Apparent Declination5° 36' 54"
Sunlit
Object is in daylight
Visualization observer readout
Local Sidereal Time10:46:55
Azimuth153.302° SSE
Elevation52.862°
Doppler factor1
Orbital elements
Apogee altitude36,093.263 km
Perigee altitude8,771.969 km
Semi-major axis28,810.753 km
Eccentricity0.474151
Inclination12.5711°
RAAN87.0814°
Arg. of periapsis209.163°
True anomaly150.79273°
Mean anomaly112.9491°
Eccentric anomaly132.86218°
Mean motion0.44382 °/min
BSTARUnknown
Orbital period811.13 mins
Loading maneuver chart data...

ATLAS 5 CENTAUR DEB Visibility forecast

Observer location: undefined°, undefined

Span
Click to sort rows by Start time (UTC) header in descending order
Start Az.
Max El. time (UTC)
Max El. Az.
Max El.
End time (UTC)
End Az.
106 mins2024-12-26 11:25:34.757Z153.321° SSE2024-12-26 11:25:34.757Z153.321° SSE38.553°2024-12-26 13:11:34.757Z111.138° ESE
399 mins2024-12-27 04:46:34.757Z223.735° SW2024-12-27 09:29:34.757Z219.627° SW33.527°2024-12-27 11:25:34.757Z232.813° WSW
|